Regional Weather Roundup
Issued by NWS Sioux Falls, SD

Home | Current Version | Previous Version | Text Only | Print | Product List | Glossary On
Versions: 1 2 3 4 5 6 7 8 9 10 11 12 13 14 15 16 17 18 19 20 21 22 23 24 25 26 27 28 29 30 31 32 33 34 35 36 37 38 39 40 41 42 43 44 45 46 47 48 49 50
000
ASUS43 KFSD 190210
RWRFSD

WEATHER ROUNDUP FOR SE SOUTH DAKOTA/SW MINNESOTA/NW IOWA
NATIONAL WEATHER SERVICE SIOUX FALLS SD
800 PM CST THU JAN 18 2018

NOTE: "FAIR" INDICATES FEW OR NO CLOUDS BELOW 12,000 FEET WITH NO
SIGNIFICANT WEATHER AND OR OBSTRUCTIONS TO VISIBILITY.


SDZ038>040-050-052>070-190300-
SOUTHEAST SOUTH DAKOTA

CITY           SKY/WX    TMP DP  RH WIND       PRES   REMARKS
BROOKINGS      CLOUDY    32  28  85 S6        29.77F WCI  26
CHAMBERLAIN    CLOUDY    38  33  81 SW5       29.76F
HURON          CLOUDY    31  28  89 S6        29.76F WCI  25
MADISON        FAIR      32  32 100 SW10      29.78S WCI  24
MITCHELL       CLOUDY    35  29  78 S8        29.78F WCI  29
SIOUX FALLS    CLOUDY    31  26  82 SW5       29.79F WCI  26
WINNER         FAIR      45  31  58 SW9       29.76F
YANKTON        CLOUDY    36  28  73 S6        29.82F
$$

MNZ071-072-080-081-089-090-097-098-190300-
SOUTHWEST MINNESOTA

CITY           SKY/WX    TMP DP  RH WIND       PRES   REMARKS
FAIRMONT       CLOUDY    33  27  78 SW12      29.81F WCI  24
JACKSON        CLOUDY    34  28  80 SW10      29.81F WCI  26
LUVERNE        CLOUDY    28  27  93 CALM      29.81F
MARSHALL       CLOUDY    35  27  72 W7        29.76F WCI  29
MONTEVIDEO     CLOUDY    36  28  75 W8        29.74F
PIPESTONE      CLOUDY    27  25  93 S5        29.78F WCI  21
REDWOOD FALLS  CLOUDY    32  28  85 SW14      29.76F WCI  22
WINDOM         CLOUDY    36  19  51 SW13      29.79S
WORTHINGTON    CLOUDY    34  28  79 SW13      29.79F WCI  25
$$

IAZ001>003-012>014-020>022-031-032-NEZ013-014-SDZ071-190300-
NORTHWEST IOWA

CITY           SKY/WX    TMP DP  RH WIND       PRES   REMARKS
CHEROKEE       CLOUDY    29  25  82 S5        29.86F WCI  24
DENISON        CLOUDY    28  21  74 S10       29.91F WCI  19
ESTHERVILLE    CLOUDY    32  27  81 SW10      29.82F WCI  24
LE MARS        CLOUDY    30  25  80 S8        29.85F WCI  23
ORANGE CITY    CLOUDY    30  28  93 S8        29.84F WCI  23
SHELDON        CLOUDY    30  27  86 S7        29.81F WCI  23
SIOUX CITY     CLOUDY    27  24  89 E7        29.87S WCI  19
SPENCER        CLOUDY    32  25  75 SW10      29.84F WCI  24
STORM LAKE     CLOUDY    28  23  80 SW10      29.86S WCI  19
$$

ABBREVIATIONS USED IN REMARKS
   TC - TEMPERATURE IN CELSIUS
  WCI - WIND CHILL INDEX
   HX - HEAT INDEX
  VSB - VISIBILITY




USA.gov is the U.S. government's official web portal to all federal, state and local government web resources and services.